User: anonymous   Login
Location: Unspecified
(41.5000°N, 0.0000°E)
Time: 23:02:23
(UTC+00:00)
Language:

Vanguard 2 Rocket - Orbit

View from above orbital plane
View from above orbital plane
View from above satellite
View from above satellite

Ground track
Ground track

The orbit data is extracted from the following two-line orbital elements,

1    12U 59001B   19166.16421946  .00000152  00000-0  73840-4 0  9998
2    12  32.9067 199.5016 1666216 299.7111  44.7822 11.44263945480357
Epoch (UTC): 15 June 2019 03:56:28
Eccentricity: 0.1666216
inclination: 32.9067°
perigee height: 554 km
apogee height: 3326 km
right ascension of ascending node: 199.5016°
argument of perigee: 299.7111°
revolutions per day: 11.44263945
mean anomaly at epoch: 44.7822°
orbit number at epoch: 48035

The dashed part of the orbit path shows where the satellite is in the earth's shadow,  

DLR